[[{"header":{"parameterUnit":"m.s-1","parameterCategory":1,"la1":30.2991,"la2":30.254,"lo1":-89.0895,"lo2":-89.0444,"dy":0.0017,"dx":0.0017,"nx":28,"ny":28,"refTime":"2025-12-21T03:00:00:Z","depth":0,"parameterNumber":2,"parameterNumberName":"U-component_of_WINDS"},"data":[0,0,0,0,0,0,0,0,0,0,0,0,0,0,0,0,0,0,0,0,0,0,0,0,0,0,0,0,0,0,0,0,0,0,0,0,0,0,0,0,0,0,0,0,0,0,0,0,0,0,0,0,0,0,0,0,0,0,-3.4732,-3.4734,0,-3.4917,-3.4919,-3.4921,-3.4942,-3.494,-3.4939,-3.4937,-3.5129,-3.5136,-3.5142,0,0,0,0,0,0,0,0,0,0,0,0,0,-3.4399,-3.4405,-3.4732,-3.4734,-3.4737,-3.4917,-3.4919,-3.4922,-3.4943,-3.494,-3.4938,-3.4936,-3.5127,-3.5135,-3.5143,0,0,0,0,0,0,0,0,0,0,0,0,0,-3.456,-3.4407,-3.4732,-3.4769,-3.4774,-3.4916,-3.492,-3.4923,-3.4943,-3.494,-3.4938,-3.4935,-3.5124,-3.5134,-3.5144,-3.5263,0,0,-3.5175,-3.518,0,0,0,0,0,0,0,0,-3.4551,-3.4572,-3.4761,-3.4766,-3.4772,-3.4904,-3.4872,-3.5037,-3.4944,-3.4879,-3.4937,-3.4934,-3.5056,-3.5072,-3.5113,-3.5272,-3.528,-3.5176,-3.5183,-3.5187,-3.519,0,0,0,0,0,0,0,-3.4539,-3.4564,-3.4805,-3.4764,-3.4771,-3.4777,-3.4797,-3.4904,-3.4981,-3.4884,-3.4886,-3.4908,-3.5059,-3.5103,-3.5118,-3.5283,-3.5176,-3.5185,-3.5191,-3.5195,-3.555,-3.5553,0,0,0,0,0,0,-3.4521,-3.4555,-3.4799,-3.4811,-3.4652,-3.4785,-3.4807,-3.4864,-3.498,-3.4995,-3.491,-3.4908,-3.5087,-3.5106,-3.5124,-3.5271,-3.5187,-3.5196,-3.5202,-3.5546,-3.555,-3.5554,0,0,0,0,0,0,-3.4514,-3.4543,-3.4792,-3.4684,-3.4716,-3.4794,-3.4858,-3.487,-3.4913,-3.4999,-3.5013,-3.494,-3.5085,-3.511,-3.5228,-3.5278,-3.5201,-3.521,-3.5542,-3.5548,-3.5552,-3.5565,0,0,0,0,0,0,-3.4504,-3.454,-3.4585,-3.4684,-3.4721,-3.4892,-3.4861,-3.4875,-3.4931,-3.493,-3.5032,-3.5046,-3.5085,-3.5213,-3.5238,-3.5291,-3.5218,-3.5538,-3.5545,-3.555,-3.556,-3.5569,-3.5577,0,0,0,0,0,-3.4492,-3.4582,-3.4588,-3.4617,-3.478,-3.4895,-3.4916,-3.4958,-3.4935,-3.4981,-3.5037,-3.5043,-3.5269,-3.5225,-3.5254,-3.531,-3.5535,-3.5543,-3.555,-3.5556,-3.5568,-3.5577,0,0,0,0,0,0,-3.4488,-3.4596,-3.4603,-3.4727,-3.4802,-3.4898,-3.4958,-3.4969,-3.5052,-3.5048,-3.5098,-3.5121,-3.5237,-3.5286,-3.5235,-3.5431,-3.54,-3.5413,-3.5395,-3.5406,-3.5414,-3.54,-3.5227,0,0,0,0,0,-3.4501,-3.4585,-3.4675,-3.4776,-3.4813,-3.4879,-3.4931,-3.4957,-3.5037,-3.5068,-3.5132,-3.5209,-3.5298,-3.5355,-3.5441,-3.5568,-3.559,-3.5621,-3.5629,-3.5636,-3.5647,-3.5717,-3.5731,-3.5578,-3.5578,-3.5578,0,0,-3.453,-3.4599,-3.4649,-3.4777,-3.4838,-3.4924,-3.4905,-3.4997,-3.5062,-3.5083,-3.5197,-3.5247,-3.5337,-3.546,-3.5517,-3.5504,-3.5694,-3.5645,-3.565,-3.5657,-3.5726,-3.574,-3.5753,-3.5583,-3.5582,-3.5581,0,0,-3.4625,-3.4686,-3.4777,-3.4838,-3.493,-3.4973,-3.4995,-3.509,-3.5124,-3.524,-3.5257,-3.5336,-3.5487,-3.555,-3.5602,-3.5722,-3.5731,-3.5749,-3.5793,-3.5861,-3.5873,-3.5884,-3.5926,-3.594,-3.576,-3.576,-3.576,0,-3.4649,-3.4778,-3.4822,-3.4914,-3.4969,-3.4992,-3.5084,-3.5142,-3.5257,-3.5296,-3.5279,-3.5469,-3.5532,-3.5669,-3.5698,-3.574,-3.5767,-3.5737,-3.5868,-3.5879,-3.589,-3.593,-3.5946,-3.5761,-3.5761,-3.5761,-3.5761,0,-3.4803,-3.4893,-3.4955,-3.5065,-3.5128,-3.522,-3.5278,-3.5337,-3.5358,-3.5404,-3.5522,-3.5598,-3.5699,-3.5734,-3.5756,-3.5875,-3.5864,-3.5857,-3.5826,-3.5905,-3.5944,-3.596,-3.5763,-3.5763,-3.5762,-3.5762,0,0,-3.4899,-3.5032,-3.5054,-3.5104,-3.5208,-3.5278,-3.5372,-3.547,-3.5519,-3.5599,-3.5678,-3.5806,-3.58,-3.5859,-3.5889,-3.5949,-3.6038,-3.5935,-3.5938,-3.595,-3.6173,-3.6176,-3.6193,-3.6045,-3.6048,-3.6051,-3.6165,0,-3.5005,-3.5169,-3.5212,-3.5352,-3.5436,-3.5459,-3.554,-3.5613,-3.5658,-3.5736,-3.5787,-3.5876,-3.5863,-3.5898,-3.5959,-3.6014,-3.6083,-3.6007,-3.6119,-3.6122,-3.6093,-3.6214,-3.6217,-3.6321,-3.618,-3.6183,-3.6185,0,-3.515,-3.5232,-3.538,-3.5472,-3.5509,-3.5581,-3.5675,-3.5749,-3.5833,-3.5862,-3.5927,-3.5952,-3.605,-3.6015,-3.6152,-3.6099,-3.6148,-3.6182,-3.6187,-3.6198,-3.6157,-3.6226,-3.6355,-3.637,-3.621,-3.6208,-3.6206,0,-3.5203,-3.5351,-3.5458,-3.5501,-3.5612,-3.5662,-3.571,-3.5791,-3.5848,-3.593,-3.5968,-3.6061,-3.6112,-3.6184,-3.6233,-3.6204,-3.6365,-3.6335,-3.6392,-3.639,-3.6423,-3.642,-3.656,-3.6457,-3.6457,-3.6457,-3.6456,0,-3.5316,-3.5405,-3.5483,-3.5549,-3.565,-3.57,-3.5799,-3.5849,-3.592,-3.5997,-3.6024,-3.6095,-3.6157,-3.6237,-3.6276,-3.6382,-3.6406,-3.6432,-3.6441,-3.6429,-3.6425,-3.646,-3.6453,-3.6461,-3.646,-3.6459,-3.6459,0,-3.5391,-3.5447,-3.5566,-3.5662,-3.5688,-3.5758,-3.584,-3.5906,-3.5953,-3.6049,-3.6075,-3.6148,-3.6244,-3.6301,-3.6422,-3.6448,-3.6566,-3.6573,-3.6537,-3.6541,-3.6594,-3.6587,-3.676,-3.6784,-3.6666,-3.6667,-3.6668,0,-3.5458,-3.5528,-3.5631,-3.5684,-3.5733,-3.5818,-3.5876,-3.5928,-3.5987,-3.6087,-3.6141,-3.6238,-3.6318,-3.647,-3.6535,-3.6628,-3.6636,-3.669,-3.665,-3.6635,-3.6635,-3.6629,-3.6636,-3.6696,-3.6697,-3.6698,-3.6699,0,-3.5571,-3.5596,-3.5677,-3.577,-3.5838,-3.5913,-3.5987,-3.6029,-3.6094,-3.6159,-3.6257,-3.6319,-3.6443,-3.6539,-3.6637,-3.6689,-3.6705,-3.6711,-3.6729,-3.6716,-3.6692,-3.6704,-3.6553,-3.6706,-3.6706,-3.6705,-3.6705,-3.6704,-3.5644,-3.5706,-3.5788,-3.5879,-3.5941,-3.601,-3.6076,-3.6131,-3.6213,-3.6317,-3.6343,-3.6445,-3.6528,-3.6662,-3.6716,-3.6797,-3.6788,-3.6814,-3.682,-3.6826,-3.6826,-3.668,-3.6815,-3.6815,-3.6815,-3.6815,-3.6815,0,-3.5757,-3.5811,-3.5894,-3.5997,-3.6068,-3.6077,-3.6161,-3.622,-3.6309,-3.6385,-3.6463,-3.6575,-3.6669,-3.6742,-3.6838,-3.6889,-3.6899,-3.6912,-3.6908,-3.6919,-3.6829,-3.6803,-3.6903,-3.6903,-3.6903,-3.6903,-3.6903,-3.6903,-3.5823,-3.5929,-3.5964,-3.6101,-3.6155,-3.6255,-3.6301,-3.6366,-3.6426,-3.655,-3.6627,-3.6674,-3.6749,-3.685,-3.6937,-3.6956,-3.6989,-3.7002,-3.7022,-3.6936,-3.6926,-3.6917,-3.6893,-3.7009,-3.7009,-3.7105,-3.7106,-3.7106]},{"header":{"parameterUnit":"m.s-1","parameterCategory":1,"la1":30.2991,"la2":30.254,"lo1":-89.0895,"lo2":-89.0444,"dy":0.0017,"dx":0.0017,"nx":28,"ny":28,"refTime":"2025-12-21T03:00:00:Z","depth":0,"parameterNumber":3,"parameterNumberName":"V-component_of_WINDS"},"data":[0,0,0,0,0,0,0,0,0,0,0,0,0,0,0,0,0,0,0,0,0,0,0,0,0,0,0,0,0,0,0,0,0,0,0,0,0,0,0,0,0,0,0,0,0,0,0,0,0,0,0,0,0,0,0,0,0,0,1.5388,1.539,0,1.56,1.5602,1.5604,1.5663,1.5662,1.566,1.5659,1.5874,1.588,1.5887,0,0,0,0,0,0,0,0,0,0,0,0,0,1.5034,1.504,1.5388,1.5391,1.5393,1.5599,1.5602,1.5605,1.5663,1.5662,1.566,1.5659,1.5872,1.588,1.5888,0,0,0,0,0,0,0,0,0,0,0,0,0,1.5211,1.5042,1.5387,1.5447,1.5454,1.5599,1.5602,1.5606,1.5663,1.5661,1.566,1.5658,1.5869,1.5879,1.5889,1.5988,0,0,1.592,1.5925,0,0,0,0,0,0,0,0,1.52,1.5224,1.5436,1.5443,1.5452,1.5603,1.5556,1.5734,1.5664,1.5584,1.5659,1.5657,1.5785,1.5802,1.5846,1.5998,1.6008,1.5921,1.5927,1.5932,1.5935,0,0,0,0,0,0,0,1.5188,1.5215,1.5472,1.5439,1.5449,1.5463,1.5486,1.559,1.5692,1.5591,1.5596,1.562,1.5789,1.5836,1.5851,1.6011,1.5921,1.593,1.5936,1.594,1.6258,1.626,0,0,0,0,0,0,1.5166,1.5204,1.5465,1.5478,1.5319,1.5471,1.5497,1.5556,1.5691,1.571,1.5621,1.5622,1.5819,1.5839,1.5859,1.5986,1.5932,1.5941,1.5947,1.6256,1.6258,1.6261,0,0,0,0,0,0,1.5158,1.5189,1.5456,1.5343,1.5378,1.5479,1.5545,1.5561,1.5608,1.5714,1.5732,1.565,1.5818,1.5844,1.5956,1.5995,1.5946,1.5955,1.6253,1.6257,1.626,1.624,0,0,0,0,0,0,1.5148,1.5185,1.5224,1.5343,1.5384,1.5551,1.5548,1.5567,1.5626,1.5629,1.5746,1.5764,1.5819,1.5941,1.5967,1.6008,1.5963,1.625,1.6255,1.6259,1.6238,1.6243,1.6247,0,0,0,0,0,1.5135,1.5209,1.5226,1.5257,1.5434,1.5553,1.5576,1.5639,1.5628,1.5669,1.5737,1.576,1.5986,1.5952,1.5981,1.6026,1.6248,1.6253,1.6258,1.6236,1.6242,1.6247,0,0,0,0,0,0,1.5092,1.5226,1.5246,1.5361,1.5445,1.5562,1.5615,1.5642,1.573,1.5729,1.5802,1.5828,1.5936,1.5992,1.5952,1.613,1.6117,1.6128,1.609,1.6097,1.6101,1.6086,1.5972,0,0,0,0,0,1.5096,1.5181,1.5293,1.5384,1.5426,1.5513,1.5567,1.5608,1.5697,1.5733,1.581,1.5895,1.5986,1.6044,1.6133,1.6246,1.6273,1.6291,1.6295,1.6298,1.6308,1.6374,1.6384,1.6278,1.6278,1.6278,0,0,1.5105,1.5189,1.5238,1.5378,1.5448,1.5535,1.5542,1.5633,1.5699,1.5747,1.5858,1.5917,1.6018,1.6131,1.6185,1.6181,1.6343,1.6305,1.6306,1.6315,1.638,1.639,1.6399,1.6281,1.6281,1.628,0,0,1.5167,1.5238,1.5323,1.5393,1.5499,1.5557,1.5577,1.5691,1.5732,1.5845,1.5883,1.5962,1.6115,1.6186,1.6242,1.6332,1.6357,1.6358,1.6381,1.6445,1.6453,1.6461,1.6495,1.6507,1.6367,1.6367,1.6367,0,1.5164,1.5297,1.5362,1.5453,1.5514,1.5562,1.5649,1.5714,1.5843,1.5884,1.5878,1.6074,1.6144,1.6276,1.6298,1.6341,1.6367,1.6346,1.6447,1.6456,1.6464,1.6497,1.651,1.6367,1.6367,1.6367,1.6367,0,1.5291,1.5382,1.5438,1.5564,1.5631,1.5718,1.5797,1.5857,1.5892,1.595,1.6066,1.6152,1.6261,1.6294,1.6329,1.6432,1.6427,1.6432,1.6421,1.6473,1.6505,1.6518,1.6366,1.6366,1.6366,1.6366,0,0,1.5332,1.5493,1.5513,1.5571,1.5692,1.5764,1.5854,1.5962,1.6013,1.61,1.6178,1.6308,1.6315,1.6378,1.6421,1.6477,1.6545,1.6477,1.648,1.6488,1.6666,1.6663,1.6676,1.6561,1.6564,1.6566,1.6659,0,1.5411,1.5575,1.5637,1.5772,1.5858,1.5905,1.5984,1.6067,1.6124,1.6205,1.6267,1.6359,1.636,1.6399,1.6456,1.6524,1.6582,1.6518,1.6636,1.6639,1.6612,1.6693,1.669,1.6773,1.6671,1.6674,1.6675,0,1.5525,1.5615,1.5759,1.5871,1.591,1.598,1.6084,1.6161,1.6256,1.6293,1.6365,1.6404,1.6501,1.6482,1.6617,1.6572,1.6624,1.6665,1.6669,1.6685,1.6662,1.6713,1.6801,1.6814,1.6696,1.6694,1.6692,0,1.5544,1.5701,1.5808,1.5856,1.5989,1.6038,1.6095,1.6188,1.6249,1.634,1.6381,1.648,1.6535,1.6611,1.6677,1.6657,1.6807,1.6792,1.6841,1.684,1.6873,1.687,1.6973,1.6901,1.6901,1.6901,1.6901,0,1.5627,1.5713,1.5819,1.5885,1.5984,1.6053,1.6149,1.6209,1.6292,1.6371,1.6416,1.6489,1.657,1.6654,1.6705,1.681,1.6834,1.6868,1.6881,1.6865,1.6861,1.6902,1.6899,1.6904,1.6904,1.6903,1.6902,0,1.5665,1.5739,1.5859,1.5976,1.6007,1.6075,1.6175,1.6241,1.6299,1.6399,1.6426,1.6518,1.6619,1.6692,1.682,1.6855,1.6969,1.698,1.6937,1.6945,1.6991,1.6986,1.7125,1.7147,1.7058,1.7059,1.7059,0,1.5714,1.5783,1.5907,1.5964,1.6021,1.6111,1.6175,1.6246,1.6309,1.6424,1.6476,1.658,1.6668,1.6826,1.6904,1.7004,1.702,1.7061,1.7035,1.7018,1.7024,1.702,1.7028,1.7066,1.7066,1.7067,1.7067,0,1.5795,1.5829,1.5918,1.6021,1.6095,1.618,1.6264,1.6308,1.6394,1.6463,1.6568,1.6635,1.6768,1.6871,1.6979,1.7038,1.7068,1.7074,1.7092,1.7078,1.7051,1.7069,1.6951,1.7072,1.7071,1.7071,1.7071,1.707,1.5843,1.5906,1.6004,1.6103,1.6175,1.6253,1.6322,1.639,1.6478,1.6593,1.6629,1.6738,1.6832,1.698,1.704,1.7126,1.7124,1.7148,1.7155,1.716,1.7161,1.7035,1.7145,1.7145,1.7145,1.7145,1.7145,0,1.5928,1.5993,1.6083,1.6202,1.628,1.6301,1.6396,1.646,1.6556,1.6641,1.6727,1.6847,1.6948,1.7034,1.7139,1.7191,1.7207,1.7216,1.7214,1.7228,1.7155,1.7131,1.7201,1.7201,1.7201,1.7201,1.7201,1.7201,1.5981,1.6091,1.6137,1.6283,1.6348,1.6456,1.6509,1.6582,1.6651,1.6784,1.6869,1.6924,1.7011,1.7122,1.7216,1.7238,1.7276,1.7282,1.7308,1.7239,1.7233,1.7226,1.7205,1.7289,1.7289,1.7374,1.7375,1.7376]}]]